Starlink 2400

operational
NORAD ID: 47817 Int'l Des: 2021-018 Owner: SPXS Country: US Constellation: starlink
LEOCIRCULARSTARLINK_TYPE

About Starlink 2400

Description loading...

Live Position

Loading 3D Globe...

Upcoming Passes

Altitude History

Altitude vs Time

uPlot chart will show altitude changes over time

Two-Line Element Set

1 47817U 21018AG 26048.23563910 -.00001398 00000-0 -35117-4 0 9992
2 47817 53.1602 338.1334 0001472 85.0155 275.1014 15.30173860273588
Epoch: Feb 17, 2026 • Age: 25 hours

Current Status

Altitude 475.1 km
Velocity 7.63 km/s
Sub-Earth Point 14.61°N, 93.97°E
Launch Date Mar 11, 2021
Age 4.9 years
Type internet

Technical Details

Classification Payload
Mass 260.00 kg
Dry Mass 248.00 kg
Total Mass 260.00 kg
Length 0.20 m
Diameter 2.80 m
Span 9.00 m
Shape Box + pan
Manufacturer SPXS
Bus Type Starlink
Phase Status In Orbit
Owner/State SPXS/US

Large Constellations

Loading constellations...